Location: Newark
(50.4348°N, 30.5552°E)
Time: 16:01:19
(UTC+00:00)

Transit 2A Rocket - Pass Details

Date: 27 January 2020
Orbit: 592 x 911 km, 66.7° (Epoch: 16 February)

Event Time Altitude Azimuth Distance (km) Brightness Sun altitude
Exits shadow 02:51:38 51° 128° (SE) 755 5.1 -26.7°
Maximum altitude 02:51:48 51° 120° (ESE) 752 5.2 -26.7°
Drops below altitude 10° 02:56:02 10° 45° (NE) 1,964 7.7 -26.0°
Sets 02:58:22 0° 40° (NE) 2,899 8.6 -25.6°
